Regional Weather Roundup
Issued by NWS Northern Indiana

Home | Current Version | Previous Version | Graphics & Text | Print | Product List | Glossary On
Versions: 1 2 3 4 5 6 7 8 9 10 11 12 13 14 15 16 17 18 19 20 21 22 23 24 25 26 27 28 29 30 31 32 33 34 35 36 37 38 39 40 41 42 43 44 45 46 47 48 49 50
000
ASUS43 KIWX 230900
RWRIWX

KIWX WEATHER ROUNDUP
NATIONAL WEATHER SERVICE NORTHERN INDIANA
500 AM EDT WED APR 23 2014

NOTE: "FAIR" INDICATES FEW OR NO CLOUDS BELOW 12,000 FEET WITH NO
SIGNIFICANT WEATHER AND/OR OBSTRUCTIONS TO VISIBILITY.

* THESE STATIONS ARE NOT UNDER NWS QUALITY CONTROL. THEY ALSO MAY NOT
  REPORT WEATHER SUCH AS PRECIPITATION OR FOG.

INZ001>027-231000-
NORTHERN INDIANA

CITY           SKY/WX    TMP DP  RH WIND       PRES   REMARKS
GARY*          CLEAR     38  29  70 N12G18    30.13R
VALPARAISO     CLEAR     34  27  75 N8        30.10R WCI  27
LAPORTE*       CLEAR     34  27  75 N14G20    30.09S WCI  25
SOUTH BEND     CLEAR     34  26  72 N9        30.08R WCI  27
GOSHEN         CLEAR     35  28  75 N10       30.05R WCI  27
MONTICELLO*    CLEAR     35  29  80 N7        30.07R WCI  29
ANGOLA*        CLEAR     34  28  80 N6        30.02R WCI  29
FORT WAYNE     CLEAR     36  27  69 NW8       30.03R
PERU/GRISSOM   CLEAR     35  32  88 NW8       30.05R WCI  29

$$
INZ028>050-231000-
CENTRAL INDIANA

CITY           SKY/WX    TMP DP  RH WIND       PRES   REMARKS
LAFAYETTE      CLEAR     34  27  75 N6        30.09R WCI  29
KOKOMO*        CLEAR     36  25  64 N7        30.06R
MUNCIE*        CLEAR     36  28  73 N8        30.03R
INDIANAPOLIS   CLEAR     38  26  62 N8        30.05R

$$
MIZ043>046-050>051-056>058-064>065-071>073-077>080-231000-
SOUTHWEST LOWER MICHIGAN

CITY           SKY/WX    TMP DP  RH WIND       PRES   REMARKS
BATTLE CREEK   CLEAR     33  26  75 NW8       30.05R WCI  26
BENTON HARBOR  CLEAR     34  28  79 VRB7      30.09R WCI  28
COLDWATER*     CLEAR     33  27  80 N8        30.04R WCI  25
HILLSDALE*     CLOUDY    35  28  75 N14       30.01R WCI  26
HOLLAND        CLEAR     35  26  69 N5        30.09R WCI  31
GRAND RAPIDS   CLEAR     33  26  75 NW8       30.07R WCI  26
KALAMAZOO      CLEAR     33  25  72 N10       30.06R WCI  25
STURGIS*       CLEAR     34  27  75 N12       30.04R WCI  25
THREE RIVERS*  FAIR      34  27  73 N7        30.06R WCI  28

$$
OHZ001>008-015>018-024>025-231000-
NORTHWEST OHIO

CITY           SKY/WX    TMP DP  RH WIND       PRES   REMARKS
DEFIANCE       CLEAR     37  27  67 N9        30.02R
FINDLAY        CLEAR     36  28  73 N9        29.98R
TOLEDO EXPRESS CLEAR     35  27  72 NW8       30.00R WCI  29
TOLEDO METCALF CLEAR     37  27  67 NW12      30.00R
LIMA           CLEAR     37  29  72 NW9       29.99R

$$
&&



USA.gov is the U.S. government's official web portal to all federal, state and local government web resources and services.